Lapse_Rate
2.3 1.4 1.0 0.9 0.6 0.5 0.8 1.1 0.6 -0.1 -0.2 -1.2 -1.2 -1.3 -0.8 -0.8 -0.6 0.5 1.8 1.9 1.8 1.5 0.8 0.1 0.2 0.1 -0.4 -0.6 -0.5 -0.7 -0.7 -0.6 -2.0 0.1 0.9 1.6 2.1 2.5 2.1 2.6 2.4 2.9 3.4
0.7 0.5 0.1 -0.2 0.7 0.3 1.0 0.4 0.8 0.0 -0.1 -0.6 -1.3 -0.9 -1.0 -0.8 -0.2 0.6 1.4 1.8 1.9 1.7 1.1 0.3 -0.3 -0.2 -0.4 -0.2 -0.4 -0.8 -0.2 -0.7 -1.9 -0.3 -0.6 1.2 2.7 2.0 1.8 1.9 2.5 1.9 2.3
0.2 -0.9 -1.5 -1.0 -0.8 0.0 0.0 0.5 0.5 0.4 0.0 -0.2 -1.4 -1.8 -1.2 -0.8 -0.2 -0.2 -0.0 1.0 1.8 1.7 1.4 0.8 0.2 -0.2 -0.4 -0.1 -0.4 -0.4 -0.0 0.4 -0.3 -0.7 0.9 2.0 2.4 0.0 1.6 2.1 1.6 1.2 1.1
0.2 -1.2 -1.9 -2.5 -1.3 -0.5 -0.9 0.0 0.3 0.4 0.4 -0.4 -0.1 0.1 -0.1 0.3 -0.1 0.1 -0.1 0.0 1.6 1.5 1.6 1.3 0.8 0.3 -0.0 0.1 0.1 0.0 -0.3 0.1 0.8 0.4 1.0 0.5 1.4 2.2 1.7 1.5 1.3 0.9 1.5
-0.7 -1.6 -1.6 -1.6 -2.0 -1.3 -0.3 -0.2 0.2 0.7 0.4 0.0 0.2 -0.2 0.3 0.1 -0.4 -0.5 -0.0 0.1 0.5 1.4 1.7 1.6 1.1 0.6 0.4 0.3 0.5 0.4 0.2 -0.2 0.2 0.5 0.9 1.0 0.7 1.0 2.4 1.8 0.6 -0.0 0.6
-1.5 -2.0 -1.4 -1.3 -1.3 -1.1 -0.8 -0.5 0.3 0.9 0.6 0.3 0.1 0.4 0.5 -0.0 -0.2 -0.4 -0.1 -0.1 -0.2 -0.0 1.3 1.8 1.4 1.3 1.0 0.8 0.8 0.5 0.7 0.4 0.2 0.1 0.3 1.3 2.3 2.5 2.6 2.2 0.9 0.5 -0.3
0.3 -0.3 -0.0 1.1 0.1 -0.4 -0.5 -0.1 0.7 1.1 0.9 0.8 0.5 0.4 0.3 0.2 0.9 0.7 0.3 0.2 0.4 0.6 0.9 1.3 1.1 1.1 1.7 1.7 1.4 1.0 1.0 0.8 0.7 0.8 0.9 0.7 1.4 1.6 2.0 2.2 2.0 1.7 0.2
0.9 1.1 0.8 0.2 0.2 0.3 -0.0 0.6 1.1 1.6 1.3 1.3 1.1 0.5 0.4 0.2 0.5 0.8 0.4 0.5 0.8 1.0 1.6 1.5 1.8 2.1 2.4 2.2 1.9 0.9 1.1 1.2 0.9 1.3 0.9 1.1 1.5 1.5 2.0 2.7 2.7 2.4 1.3
0.7 -0.2 -0.7 -0.9 -0.3 0.2 0.6 1.1 1.8 2.2 1.9 1.7 1.1 0.8 0.6 1.0 1.3 1.1 0.9 0.9 1.0 2.1 2.1 2.1 2.1 2.5 2.7 2.7 2.2 1.6 1.9 1.6 1.5 1.4 1.2 1.2 1.7 1.6 1.7 1.9 2.3 3.5 3.9
0.5 -0.3 -0.8 -0.7 -0.3 -0.1 0.1 1.0 1.8 2.0 1.9 1.6 1.2 1.3 1.2 1.2 1.0 0.8 1.0 1.1 1.2 1.8 1.8 2.1 2.4 2.4 2.6 2.6 2.2 2.0 2.0 2.0 1.7 2.2 1.9 1.9 1.9 1.9 1.8 1.9 2.2 2.4 3.5
1.0 0.4 -0.1 -0.5 -0.7 -0.7 -0.4 -0.1 0.3 0.2 -0.1 0.0 -0.1 -0.2 -0.0 0.1 0.0 0.1 0.4 0.7 0.7 1.1 1.4 1.8 2.1 2.3 2.3 2.1 2.1 2.3 2.5 2.5 2.3 2.2 2.2 2.5 2.3 2.0 2.0 2.0 2.2 2.5 2.7
1.4 0.6 0.1 -0.1 -0.2 -0.4 -0.3 -0.3 -0.4 -0.2 -0.8 -0.6 -0.3 -0.4 -0.1 -0.0 0.3 0.3 0.5 0.7 0.9 1.2 1.2 1.5 1.7 1.9 2.0 1.8 1.8 2.1 1.9 2.0 2.1 2.0 2.0 2.4 3.5 2.3 2.4 2.3 2.6 2.7 2.6
2.1 1.4 0.9 0.6 0.1 -0.2 -0.2 -0.3 -0.3 -0.3 -0.4 0.0 0.2 0.1 0.0 0.5 0.4 0.6 0.8 1.2 1.3 1.2 1.4 1.5 1.6 1.9 2.1 2.1 2.0 1.9 2.0 2.0 2.1 2.2 2.2 2.2 2.3 2.2 2.3 2.4 2.6 2.9 4.3
3.0 2.0 1.6 0.9 0.7 0.5 0.2 0.0 -0.1 -0.1 0.0 0.5 0.5 0.3 0.3 0.4 0.4 0.6 0.9 1.2 1.0 1.0 0.9 0.9 1.0 1.2 1.7 1.9 1.8 1.9 1.6 1.6 1.8 2.1 2.2 2.2 2.4 2.3 2.2 3.0 2.8 3.9 3.2
4.0 3.3 2.3 1.9 1.5 1.2 1.0 0.9 0.4 0.5 0.6 0.5 0.6 0.2 0.1 0.3 0.4 0.4 0.4 0.5 0.5 0.6 0.7 1.0 1.0 1.1 2.4 3.5 2.8 2.7 2.5 2.1 2.1 2.2 2.6 3.2 3.5 4.9 5.5 5.7 4.1 4.1 4.4
5.0 3.9 3.0 2.6 2.3 1.9 1.3 1.4 0.9 0.6 0.7 0.5 0.1 0.3 0.4 0.4 0.3 0.4 0.6 0.7 0.7 0.8 1.0 1.0 1.2 1.3 3.1 4.8 5.8 5.4 3.4 3.3 3.3 2.7 2.7 3.0 4.1 4.5 6.5 6.9 7.4 7.4 6.4
4.2 3.6 3.0 2.7 2.2 2.0 1.5 1.0 0.9 0.7 0.6 0.3 0.5 0.7 0.8 0.7 0.7 1.0 1.2 1.2 1.2 1.1 1.3 1.5 1.6 1.7 2.0 5.5 6.0 6.2 3.9 3.3 2.8 3.0 3.2 3.8 5.5 5.2 4.3 5.5 7.0 6.7 7.5
3.5 3.2 2.7 2.3 2.0 1.4 1.4 0.8 0.9 1.0 0.8 0.8 1.0 1.3 1.4 1.4 1.6 1.6 1.5 1.6 1.6 1.7 1.9 1.8 1.9 1.7 2.9 5.3 5.9 6.3 4.1 3.6 3.6 3.8 3.8 3.7 4.0 4.4 5.9 5.4 5.4 5.3 5.1
2.4 2.2 2.3 1.7 1.6 1.7 1.2 1.3 1.5 1.5 1.8 1.8 1.9 2.2 2.2 2.2 2.1 2.0 1.9 2.0 2.0 2.0 2.2 2.5 2.5 2.7 2.8 5.4 6.3 6.6 5.1 5.0 4.6 4.7 4.6 4.7 4.5 6.5 8.4 7.0 6.1 5.8 5.5
2.0 1.8 2.4 2.2 2.3 1.6 1.7 2.2 2.0 2.3 2.5 2.6 2.7 2.6 2.7 2.8 2.4 2.1 2.3 2.5 2.4 2.8 3.0 3.1 3.3 4.1 3.8 5.6 7.3 7.6 6.1 5.5 5.0 4.6 4.3 6.5 7.6 8.8 9.3 7.7 6.0 5.8 5.7
1.9 2.5 3.0 2.8 2.2 2.0 2.7 2.6 2.6 3.2 3.3 3.3 3.3 3.2 3.1 3.1 2.7 2.5 2.6 2.4 2.5 2.7 3.0 3.4 3.2 3.6 4.6 5.0 8.1 8.4 7.0 5.7 5.7 5.7 5.6 5.4 7.9 8.6 9.2 9.3 6.9 6.6 6.9
3.4 3.5 3.6 3.5 3.1 3.3 3.9 3.3 3.6 3.8 4.0 3.9 3.7 3.3 3.1 3.7 3.4 2.5 2.5 2.8 2.8 2.7 2.7 3.1 3.9 4.4 4.8 6.7 7.4 8.2 8.5 8.8 6.9 6.5 5.9 5.8 7.8 8.9 9.2 8.7 8.8 9.1 8.7
4.2 4.6 4.3 4.4 4.4 4.5 4.5 4.1 4.0 4.2 4.2 3.3 3.2 3.3 3.3 3.3 3.2 3.0 2.8 2.6 3.0 3.2 3.4 4.7 4.8 5.1 5.5 4.6 7.4 8.2 8.5 8.8 8.0 6.9 7.5 9.2 8.8 8.3 7.4 7.6 8.2 8.6 5.9
4.9 4.9 4.8 4.8 4.7 4.7 4.4 3.9 4.0 3.7 3.4 3.3 3.4 3.4 3.5 3.9 3.2 3.6 3.7 3.0 3.2 3.6 5.7 6.0 6.0 5.4 5.8 5.6 5.7 6.0 5.7 7.2 7.3 7.4 6.3 7.3 8.4 8.0 7.7 6.9 6.0 5.4 5.1
5.5 5.3 5.0 4.7 4.4 4.4 4.2 4.3 4.4 4.1 3.7 3.8 3.8 3.6 3.9 3.3 3.6 4.0 3.2 3.5 4.0 5.1 5.6 6.2 6.7 6.6 6.6 6.8 8.5 8.9 8.3 7.2 7.6 8.7 6.6 5.9 5.5 5.4 5.4 5.2 5.0 5.1 5.0
5.4 5.1 5.0 4.9 5.2 5.4 5.5 5.1 4.2 4.1 4.0 4.3 4.6 4.5 4.5 3.5 4.2 3.6 2.9 5.8 7.4 8.1 8.4 8.7 8.8 8.0 8.9 9.3 9.3 9.4 9.4 9.4 9.4 7.9 5.9 5.7 5.6 5.4 5.6 5.5 5.7 5.5 6.1
Wind_Speed
5 6 7 7 8 7 10 12 11 8 8 3 4 3 3 2 1 3 5 6 6 5 5 4 4 4 3 2 2 1 4 4 4 2 3 2 3 3 3 3 3 5 6
7 6 8 9 11 12 12 10 9 9 6 4 3 3 3 2 2 3 4 5 5 5 5 5 3 3 2 3 3 4 2 2 4 2 2 3 3 3 3 2 3 4 6
12 8 8 9 9 12 13 12 10 10 7 7 5 4 4 3 2 1 1 2 5 5 5 5 4 4 3 2 1 2 4 2 2 5 3 2 1 3 3 3 3 5 4
5 7 9 8 11 9 8 9 9 9 7 8 5 5 4 3 3 3 2 3 4 4 5 5 4 4 2 2 1 2 2 2 2 2 3 3 2 1 4 2 3 5 5
8 9 10 10 7 9 10 8 8 7 7 7 7 5 4 2 2 2 4 2 2 3 3 4 4 3 2 2 2 2 2 1 2 1 1 2 2 2 1 3 4 4 3
5 7 7 8 7 7 7 7 8 6 7 7 7 8 8 6 4 3 3 2 1 1 2 3 3 3 3 2 2 2 2 2 1 1 1 1 1 1 1 1 3 3 4
5 7 9 10 8 8 8 7 8 7 7 7 7 7 7 6 6 4 3 3 1 1 3 2 2 1 2 2 2 2 1 1 1 1 1 1 2 2 2 1 2 2 3
4 5 6 7 8 8 8 8 8 7 7 7 6 5 6 4 3 4 3 3 2 1 1 3 3 2 1 1 1 0 1 1 1 2 2 1 2 2 2 2 1 3 2
6 6 6 6 7 7 7 8 8 6 7 6 5 5 5 5 4 4 3 2 2 0 1 3 2 0 1 1 1 1 2 1 1 3 2 2 2 2 3 3 3 3 3
7 6 6 7 5 6 6 7 6 7 6 6 5 4 5 5 5 5 5 5 3 3 4 3 3 3 3 2 1 2 2 2 2 2 3 2 2 3 2 3 3 3 4
8 7 7 6 7 7 7 7 7 7 7 6 6 7 6 6 6 6 6 6 5 5 6 5 5 5 5 5 4 4 4 4 4 4 4 5 4 3 3 3 2 3 3
8 7 7 7 7 7 7 7 7 9 7 7 9 8 8 8 9 8 7 6 7 8 5 5 6 6 6 6 6 6 5 6 6 5 6 5 4 5 4 3 5 3 3
9 7 7 7 7 7 7 7 7 8 7 9 10 9 8 9 9 8 7 7 7 7 7 6 7 6 6 6 6 5 5 5 5 4 5 5 5 5 3 4 4 3 4
10 8 7 7 7 7 8 8 7 7 7 9 10 10 8 8 7 7 7 7 6 7 6 6 6 6 5 5 5 5 5 5 4 4 4 5 5 5 5 5 5 4 4
12 10 9 8 8 8 8 8 7 8 8 10 10 8 7 7 7 7 6 6 6 6 5 6 6 6 4 3 5 4 4 5 6 5 5 4 6 10 8 5 5 5 3
13 12 11 10 9 9 8 8 8 7 8 9 8 6 7 7 6 6 6 6 6 6 6 6 5 6 3 10 11 8 4 5 5 6 6 5 8 8 12 13 13 11 6
15 14 13 10 9 8 8 9 7 6 7 8 6 6 6 7 6 6 6 6 5 4 5 5 5 5 5 11 13 13 3 5 5 6 5 6 5 9 6 11 13 12 15
15 13 11 9 8 6 7 7 7 7 7 7 6 6 6 6 6 6 5 4 3 4 3 4 5 5 5 13 14 14 5 5 6 6 6 6 7 7 9 6 6 6 6
16 14 12 9 9 9 7 9 7 7 7 6 6 6 6 6 5 5 4 3 3 3 3 3 5 5 6 12 13 10 5 5 6 6 6 6 7 14 17 8 6 6 6
13 13 12 9 10 7 8 9 7 7 6 6 6 5 5 5 5 4 3 2 2 3 3 4 4 7 5 10 12 11 3 4 4 6 6 11 13 19 17 8 5 5 6
16 14 13 11 9 7 8 8 7 7 6 6 6 5 5 5 4 3 2 2 3 4 4 4 5 5 5 6 12 14 6 4 4 4 4 4 16 18 18 17 6 7 9
16 14 12 10 7 7 9 7 7 6 6 5 5 5 4 3 2 3 3 3 3 4 5 5 4 4 5 10 11 15 15 14 4 5 4 6 17 20 20 17 19 21 17
14 12 12 11 7 6 7 8 4 5 5 5 5 4 3 3 3 3 3 3 3 3 4 3 3 4 4 4 14 16 16 16 9 5 10 20 19 18 13 15 18 17 4
13 12 12 11 8 7 8 6 5 5 5 4 4 3 2 2 3 2 2 2 3 4 3 4 4 4 4 5 5 6 6 12 9 11 8 9 14 14 11 9 7 4 4
11 11 10 9 8 6 6 5 5 4 4 3 2 2 1 2 2 2 3 3 4 4 4 3 3 4 5 5 12 11 6 5 7 13 2 3 3 4 5 4 4 4 4
11 10 9 9 7 7 6 4 3 4 3 1 1 1 1 1 2 2 4 9 10 12 13 13 9 5 12 15 16 17 17 18 19 6 3 4 4 5 5 6 6 5 8
Wind_Direction
235 215 183 156 143 147 154 157 149 151 140 132 128 119 134 138 107 152 149 146 135 117 110 103 94 81 75 60 17 35 31 7 344 32 5 0 354 22 343 3 21 9 3
228 194 165 160 172 167 166 153 153 155 160 138 134 128 141 153 135 148 137 147 135 125 121 116 104 106 102 56 38 43 22 10 11 81 82 16 335 349 7 351 352 359 342
204 189 170 171 160 164 164 159 159 162 154 133 112 83 78 67 79 91 134 180 151 142 132 125 125 122 114 110 87 66 62 26 357 40 114 36 308 328 326 348 340 350 340
205 186 173 166 167 168 142 145 151 153 150 149 135 141 150 152 188 164 173 164 162 157 145 136 133 129 129 125 128 99 85 86 26 352 42 68 127 20 333 331 330 327 332
217 186 180 168 155 143 154 147 140 144 145 153 150 140 142 137 135 125 139 146 175 169 154 141 136 138 147 142 136 109 106 106 123 95 11 38 53 95 123 296 320 331 312
188 157 138 130 128 126 129 139 144 148 147 150 152 156 159 153 135 133 154 172 168 210 187 158 146 159 163 171 171 138 135 137 121 138 156 152 142 245 125 284 297 267 301
144 143 148 146 142 147 146 143 143 148 153 154 159 160 160 156 160 162 167 159 163 223 224 179 179 184 203 189 161 161 195 190 182 193 235 193 210 173 183 182 275 292 299
139 126 139 143 146 146 144 141 147 143 157 159 159 150 146 148 160 163 154 167 183 199 197 197 194 209 224 191 184 172 244 214 251 262 243 272 257 211 190 202 187 316 296
133 118 105 116 124 128 141 145 144 143 156 156 147 147 145 148 155 143 137 145 129 130 130 146 154 137 274 261 211 270 294 320 290 283 276 263 272 244 237 217 187 181 295
115 102 91 98 91 100 105 107 121 137 141 136 134 130 134 123 115 108 94 83 75 72 88 86 67 47 35 29 50 340 341 332 317 301 310 291 286 293 277 254 236 209 214
121 110 96 81 86 84 89 97 94 100 95 101 99 99 95 96 90 88 83 83 77 72 69 66 65 54 46 32 38 17 11 9 356 357 357 337 328 317 319 308 280 259 201
118 112 108 103 91 91 85 90 86 92 88 96 98 92 90 86 83 78 73 68 70 59 60 57 57 47 43 41 41 35 28 30 20 7 2 353 347 334 328 320 300 272 254
120 115 108 107 106 99 97 95 92 96 91 96 95 86 80 83 79 76 71 67 69 60 54 54 50 44 47 41 37 41 29 20 17 2 356 337 343 335 331 327 302 287 290
144 131 118 113 109 107 108 106 96 94 96 93 92 89 84 85 82 78 71 69 65 65 57 51 48 37 33 38 27 27 18 4 353 342 339 330 330 319 316 311 312 323 317
154 147 139 132 122 114 107 104 99 97 101 97 95 93 90 85 82 76 71 68 61 59 54 45 34 25 19 10 2 2 347 333 324 319 314 307 306 309 313 315 309 309 294
157 149 143 138 134 132 124 116 109 101 102 99 99 97 89 83 79 75 70 65 56 50 46 35 25 12 355 349 351 349 329 315 301 299 299 293 303 299 303 311 313 309 302
158 155 152 148 144 139 133 125 118 109 99 100 96 92 90 84 78 74 66 55 49 39 31 14 12 352 334 343 342 336 319 314 309 300 295 304 301 308 287 297 302 304 302
154 152 150 143 138 126 117 115 112 106 102 97 95 93 90 86 77 68 57 43 40 25 8 355 352 341 326 341 339 334 329 316 308 306 301 291 289 290 292 269 278 281 274
156 153 149 140 133 133 131 120 112 111 107 107 103 98 92 83 70 59 43 32 26 0 353 331 336 335 314 328 333 333 332 329 314 302 296 292 285 292 300 284 273 281 284
139 135 129 121 126 129 126 121 121 115 113 118 111 100 89 81 72 61 34 20 4 334 342 333 317 310 314 324 332 330 315 300 294 292 289 302 309 310 307 297 270 276 269
129 125 128 132 133 131 124 120 125 120 129 117 107 93 82 80 73 52 40 7 1 352 330 316 312 317 320 314 327 325 315 287 282 280 291 284 306 309 307 304 295 270 282
124 124 122 121 123 125 119 120 114 128 115 107 100 88 76 64 60 64 19 358 348 341 326 314 305 307 310 317 317 318 317 314 304 290 276 281 299 303 306 307 299 301 306
124 124 122 117 109 112 115 113 118 110 113 94 86 81 75 59 62 29 355 345 337 317 308 300 304 299 292 289 303 309 312 311 307 292 291 308 309 304 306 300 302 313 312
114 114 112 109 101 93 91 105 118 104 94 103 103 95 59 50 18 357 334 338 317 301 284 286 283 281 288 290 289 287 285 290 295 293 289 289 303 305 301 309 304 291 277
104 105 106 104 103 104 95 82 78 95 107 114 95 67 56 30 339 314 273 258 261 259 268 268 272 283 284 272 289 307 302 282 286 308 301 299 298 299 302 296 284 284 284
98 97 99 97 85 77 77 81 91 108 115 104 111 181 200 308 317 313 309 314 307 306 305 305 303 285 303 306 306 312 311 308 308 323 302 294 284 280 286 289 291 285 292